Terminal Aerodrome Forecast
Issued by NWS Quad Cities IA IL

Home | Current Version | Previous Version | Text Only | Print | Product List | Glossary On
Versions: 1 2 3 4 5 6 7 8 9 10 11 12 13 14 15 16
000
FTUS43 KDVN 272300
TAFMLI
TAF
KMLI 272320Z 2800/2824 31019G27KT P6SM SCT050 SCT080
     FM280200 32008KT P6SM SKC
     FM281500 36010KT P6SM SCT050=

USA.gov is the U.S. government's official web portal to all federal, state and local government web resources and services.